• în Republica Moldova
  • Lista ţărilor
  • Pe 7 zile
  • Temperatura apei
  • Hartă satelitară
  • Meteo pe hartă
  • Widget-uri
  • user-avatar
    Intrare

    Meteo pe oră la Barra

    Astăzi, 22 Februarie, Joi

    Timp Temperatura Precipitaţii Vânt Presiune Umiditate
    00:00 +26°C° 1,6 mm 3 m/s 743 mmHg 94%
    01:00 +25°C° 1,6 mm 2 m/s 743 mmHg 96%
    02:00 +25°C° 0,2 mm 2 m/s 743 mmHg 96%
    03:00 +25°C° 0,2 mm 2 m/s 743 mmHg 96%
    04:00 +25°C° 0 mm 1 m/s 742 mmHg 96%
    05:00 +25°C° 0,1 mm 1 m/s 743 mmHg 95%
    06:00 +25°C° 0,1 mm 1 m/s 743 mmHg 95%
    07:00 +25°C° 0,1 mm 1 m/s 743 mmHg 95%
    08:00 +27°C° 0,7 mm 1 m/s 743 mmHg 84%
    09:00 +30°C° 0,7 mm 1 m/s 743 mmHg 74%
    10:00 +32°C° 0,7 mm 1 m/s 743 mmHg 64%
    11:00 +34°C° 0,2 mm 2 m/s 743 mmHg 60%
    12:00 +34°C° 0,2 mm 2 m/s 743 mmHg 56%
    13:00 +35°C° 0,2 mm 3 m/s 742 mmHg 52%
    14:00 +34°C° 0,8 mm 3 m/s 742 mmHg 58%
    15:00 +33°C° 0,8 mm 3 m/s 742 mmHg 63%
    16:00 +32°C° 0,8 mm 4 m/s 741 mmHg 68%
    17:00 +30°C° 2,2 mm 3 m/s 742 mmHg 74%
    18:00 +28°C° 2,2 mm 3 m/s 742 mmHg 81%
    19:00 +27°C° 2,2 mm 3 m/s 742 mmHg 87%
    20:00 +27°C° 1,3 mm 3 m/s 743 mmHg 88%
    21:00 +26°C° 1,3 mm 2 m/s 743 mmHg 90%
    22:00 +26°C° 1,3 mm 2 m/s 743 mmHg 91%
    23:00 +26°C° 0,9 mm 2 m/s 743 mmHg 92%

    Mâine, 23 Februarie, Vineri

    Timp Temperatura Precipitaţii Vânt Presiune Umiditate
    00:00 +26°C° 0,9 mm 2 m/s 743 mmHg 92%
    01:00 +26°C° 0,9 mm 2 m/s 743 mmHg 93%
    02:00 +25°C° 1,3 mm 3 m/s 743 mmHg 94%
    03:00 +25°C° 1,3 mm 3 m/s 743 mmHg 95%
    04:00 +25°C° 1,3 mm 3 m/s 743 mmHg 96%
    05:00 +25°C° 1,6 mm 4 m/s 743 mmHg 96%
    06:00 +25°C° 1,6 mm 4 m/s 743 mmHg 96%
    07:00 +25°C° 1,6 mm 4 m/s 744 mmHg 96%
    08:00 +26°C° 2,4 mm 4 m/s 744 mmHg 94%
    09:00 +27°C° 2,4 mm 5 m/s 745 mmHg 92%
    10:00 +28°C° 2,4 mm 5 m/s 745 mmHg 90%
    11:00 +28°C° 0,5 mm 5 m/s 745 mmHg 87%
    12:00 +28°C° 0,5 mm 5 m/s 745 mmHg 84%
    13:00 +29°C° 0,5 mm 5 m/s 744 mmHg 81%
    14:00 +29°C° 0,1 mm 5 m/s 744 mmHg 78%
    15:00 +30°C° 0,1 mm 5 m/s 743 mmHg 74%
    16:00 +32°C° 0,1 mm 4 m/s 743 mmHg 70%
    17:00 +29°C° 0,3 mm 4 m/s 743 mmHg 77%
    18:00 +28°C° 0,3 mm 4 m/s 744 mmHg 83%
    19:00 +27°C° 0,3 mm 4 m/s 744 mmHg 90%
    20:00 +27°C° 0,3 mm 3 m/s 745 mmHg 91%
    21:00 +26°C° 0,3 mm 3 m/s 745 mmHg 93%
    22:00 +26°C° 0,3 mm 3 m/s 746 mmHg 94%
    23:00 +26°C° 1,2 mm 3 m/s 746 mmHg 94%

    Poimâine, 24 Februarie, Sâmbătă

    Timp Temperatura Precipitaţii Vânt Presiune Umiditate
    00:00 +26°C° 1,2 mm 3 m/s 745 mmHg 95%
    01:00 +26°C° 1,2 mm 3 m/s 745 mmHg 95%
    02:00 +26°C° 1 mm 3 m/s 745 mmHg 95%
    03:00 +25°C° 1 mm 3 m/s 744 mmHg 95%
    04:00 +25°C° 1 mm 3 m/s 744 mmHg 95%
    05:00 +26°C° 0,5 mm 3 m/s 744 mmHg 95%
    06:00 +26°C° 0,5 mm 3 m/s 745 mmHg 95%
    07:00 +26°C° 0,5 mm 2 m/s 745 mmHg 95%
    08:00 +27°C° 0,9 mm 3 m/s 746 mmHg 89%
    09:00 +29°C° 0,9 mm 3 m/s 746 mmHg 84%
    10:00 +30°C° 0,9 mm 3 m/s 746 mmHg 78%
    11:00 +30°C° 1,4 mm 3 m/s 746 mmHg 79%
    12:00 +30°C° 1,4 mm 4 m/s 745 mmHg 80%
    13:00 +32°C° 1,4 mm 4 m/s 745 mmHg 81%
    14:00 +30°C° 1,1 mm 4 m/s 744 mmHg 82%
    15:00 +30°C° 1,1 mm 4 m/s 744 mmHg 83%
    16:00 +30°C° 1,1 mm 4 m/s 744 mmHg 84%
    17:00 +29°C° 2,6 mm 4 m/s 744 mmHg 88%
    18:00 +27°C° 2,6 mm 4 m/s 745 mmHg 92%
    19:00 +26°C° 2,6 mm 4 m/s 745 mmHg 95%
    20:00 +26°C° 1,1 mm 4 m/s 745 mmHg 96%
    21:00 +26°C° 1,1 mm 4 m/s 746 mmHg 96%
    22:00 +26°C° 1,1 mm 3 m/s 746 mmHg 96%
    23:00 +25°C° 1,2 mm 3 m/s 746 mmHg 96%

    25 Februarie, Duminică

    Timp Temperatura Precipitaţii Vânt Presiune Umiditate
    00:00 +25°C° 1,2 mm 3 m/s 745 mmHg 96%
    01:00 +25°C° 1,2 mm 3 m/s 745 mmHg 97%
    02:00 +25°C° 1,4 mm 3 m/s 745 mmHg 96%
    03:00 +24°C° 1,4 mm 3 m/s 744 mmHg 96%
    04:00 +24°C° 1,4 mm 3 m/s 744 mmHg 96%
    05:00 +25°C° 0,7 mm 3 m/s 744 mmHg 95%
    06:00 +25°C° 0,7 mm 2 m/s 745 mmHg 94%
    07:00 +25°C° 0,7 mm 2 m/s 745 mmHg 93%
    08:00 +27°C° 0,2 mm 2 m/s 745 mmHg 84%
    09:00 +29°C° 0,2 mm 2 m/s 745 mmHg 75%
    10:00 +31°C° 0,2 mm 3 m/s 746 mmHg 65%
    11:00 +33°C° 1,2 mm 3 m/s 745 mmHg 68%
    12:00 +33°C° 1,2 mm 3 m/s 744 mmHg 70%
    13:00 +33°C° 1,2 mm 3 m/s 743 mmHg 72%
    14:00 +31°C° 1,6 mm 3 m/s 743 mmHg 77%
    15:00 +30°C° 1,6 mm 3 m/s 742 mmHg 82%
    16:00 +29°C° 1,6 mm 3 m/s 742 mmHg 87%
    17:00 +28°C° 1,1 mm 3 m/s 742 mmHg 90%
    18:00 +27°C° 1,1 mm 3 m/s 743 mmHg 92%
    19:00 +26°C° 1,1 mm 3 m/s 743 mmHg 94%
    20:00 +26°C° 0,3 mm 3 m/s 744 mmHg 94%
    21:00 +26°C° 0,3 mm 3 m/s 744 mmHg 95%
    22:00 +26°C° 0,3 mm 3 m/s 745 mmHg 95%
    23:00 +26°C° 0,6 mm 3 m/s 744 mmHg 95%

    26 Februarie, Luni

    Timp Temperatura Precipitaţii Vânt Presiune Umiditate
    00:00 +25°C° 0,6 mm 3 m/s 744 mmHg 95%
    01:00 +25°C° 0,6 mm 4 m/s 744 mmHg 95%
    02:00 +25°C° 0,8 mm 3 m/s 743 mmHg 95%
    03:00 +25°C° 0,8 mm 3 m/s 743 mmHg 95%
    04:00 +25°C° 0,8 mm 2 m/s 743 mmHg 95%
    05:00 +25°C° 0,6 mm 2 m/s 743 mmHg 94%
    06:00 +25°C° 0,6 mm 2 m/s 744 mmHg 94%
    07:00 +26°C° 0,6 mm 2 m/s 744 mmHg 93%
    08:00 +27°C° 0,7 mm 2 m/s 744 mmHg 87%
    09:00 +29°C° 0,7 mm 1 m/s 744 mmHg 80%
    10:00 +31°C° 0,7 mm 1 m/s 744 mmHg 73%
    11:00 +32°C° 0,4 mm 2 m/s 744 mmHg 69%
    12:00 +34°C° 0,4 mm 2 m/s 743 mmHg 66%
    13:00 +34°C° 0,4 mm 3 m/s 743 mmHg 62%
    14:00 +33°C° 0,9 mm 3 m/s 743 mmHg 70%
    15:00 +32°C° 0,9 mm 4 m/s 742 mmHg 77%
    16:00 +30°C° 0,9 mm 4 m/s 742 mmHg 85%
    17:00 +29°C° 0,9 mm 4 m/s 742 mmHg 88%
    18:00 +28°C° 0,9 mm 3 m/s 743 mmHg 92%
    19:00 +27°C° 0,9 mm 3 m/s 743 mmHg 95%
    20:00 +27°C° 1,3 mm 3 m/s 744 mmHg 96%
    21:00 +26°C° 1,3 mm 3 m/s 744 mmHg 96%
    22:00 +26°C° 1,3 mm 3 m/s 745 mmHg 96%
    23:00 +26°C° 2,4 mm 3 m/s 745 mmHg 96%

    27 Februarie, Marţi

    Timp Temperatura Precipitaţii Vânt Presiune Umiditate
    00:00 +26°C° 2,4 mm 3 m/s 745 mmHg 96%
    01:00 +26°C° 2,4 mm 3 m/s 744 mmHg 96%
    02:00 +26°C° 1,6 mm 3 m/s 744 mmHg 96%
    03:00 +26°C° 1,6 mm 3 m/s 744 mmHg 96%
    04:00 +26°C° 1,6 mm 3 m/s 744 mmHg 96%
    05:00 +26°C° 0,2 mm 3 m/s 744 mmHg 96%
    06:00 +26°C° 0,2 mm 3 m/s 745 mmHg 96%
    07:00 +26°C° 0,2 mm 3 m/s 745 mmHg 96%
    08:00 +27°C° 0,3 mm 3 m/s 745 mmHg 90%
    09:00 +29°C° 0,3 mm 3 m/s 746 mmHg 84%
    10:00 +30°C° 0,3 mm 3 m/s 746 mmHg 78%
    11:00 +31°C° 0,5 mm 3 m/s 746 mmHg 77%
    12:00 +32°C° 0,5 mm 4 m/s 745 mmHg 76%
    13:00 +33°C° 0,5 mm 4 m/s 745 mmHg 75%
    14:00 +30°C° 1,4 mm 4 m/s 745 mmHg 81%
    15:00 +29°C° 1,4 mm 4 m/s 745 mmHg 87%
    16:00 +28°C° 1,4 mm 3 m/s 744 mmHg 92%
    17:00 +27°C° 1,7 mm 3 m/s 745 mmHg 94%
    18:00 +27°C° 1,7 mm 3 m/s 745 mmHg 96%
    19:00 +26°C° 1,7 mm 3 m/s 746 mmHg 97%
    20:00 +26°C° 1,6 mm 3 m/s 746 mmHg 97%
    21:00 +26°C° 1,6 mm 2 m/s 747 mmHg 97%
    22:00 +26°C° 1,6 mm 2 m/s 747 mmHg 97%
    23:00 +26°C° 2,3 mm 2 m/s 747 mmHg 97%
    Arată mai mult